1590098689,2020-05-22 00:04,38.55,1001.14,1027.05,215,22.69,7.87,-16,1
1590098990,2020-05-22 00:09,38.52,1001.14,1027.04,215,22.59,7.77,-16,1
1590099291,2020-05-22 00:14,38.32,1000.94,1026.84,215,22.66,7.76,-16,1
1590099592,2020-05-22 00:19,38.32,1001.09,1026.99,215,22.64,7.74,-16,1
1590099893,2020-05-22 00:24,38.22,1001.08,1026.98,215,22.63,7.70,-16,1
1590100194,2020-05-22 00:29,38.07,1001.13,1027.04,215,22.61,7.62,-16,1
1590100494,2020-05-22 00:34,38.00,1001.10,1027.01,215,22.60,7.58,-16,1
1590100795,2020-05-22 00:39,37.82,1001.08,1026.98,215,22.59,7.50,-16,1
1590101096,2020-05-22 00:44,37.77,1001.06,1026.97,215,22.58,7.48,-16,1
1590101397,2020-05-22 00:49,37.67,1001.06,1026.96,215,22.56,7.42,-16,1
1590101697,2020-05-22 00:54,37.53,1001.04,1026.95,215,22.55,7.36,-16,1
1590101999,2020-05-22 00:59,37.64,1001.06,1026.96,215,22.54,7.39,-16,1
1590102301,2020-05-22 01:05,37.32,1001.07,1026.98,215,22.52,7.25,-16,1
1590102601,2020-05-22 01:10,37.37,1001.06,1026.96,215,22.52,7.27,-16,1
1590102902,2020-05-22 01:15,37.45,1001.06,1026.96,215,22.50,7.28,-16,1
1590103203,2020-05-22 01:20,37.25,1001.11,1027.01,215,22.49,7.19,-16,1
1590103504,2020-05-22 01:25,37.14,1001.10,1027.00,215,22.48,7.14,-16,1
1590103805,2020-05-22 01:30,37.00,1001.10,1027.01,215,22.46,7.07,-16,1
1590104108,2020-05-22 01:35,36.93,1001.04,1026.94,215,22.45,7.03,-16,1
1590104409,2020-05-22 01:40,36.76,1001.08,1026.98,215,22.44,6.96,-16,1
1590104710,2020-05-22 01:45,36.55,1001.07,1026.98,215,22.43,6.86,-16,1
1590105010,2020-05-22 01:50,36.43,1001.12,1027.02,215,22.41,6.80,-16,1
1590105310,2020-05-22 01:55,36.68,1001.16,1027.07,215,22.40,6.89,-17,1
1590105610,2020-05-22 02:00,36.59,1001.12,1027.02,215,22.39,6.85,-16,1
1590105911,2020-05-22 02:05,36.34,1001.12,1027.03,215,22.38,6.73,-18,1
1590106212,2020-05-22 02:10,36.23,1001.15,1027.06,215,22.36,6.68,-18,1
1590106512,2020-05-22 02:15,35.96,1001.20,1027.11,215,22.35,6.55,-17,1
1590106813,2020-05-22 02:20,35.98,1001.23,1027.13,215,22.35,6.56,-17,1
1590107114,2020-05-22 02:25,36.09,1001.19,1027.09,215,22.33,6.59,-17,1
1590107415,2020-05-22 02:30,35.92,1001.19,1027.10,215,22.32,6.51,-18,1
1590107716,2020-05-22 02:35,35.86,1001.18,1027.08,215,22.30,6.47,-18,1
1590108016,2020-05-22 02:40,35.67,1001.19,1027.10,215,22.24,6.34,-18,1
1590108317,2020-05-22 02:45,35.49,1001.19,1027.09,215,22.28,6.30,-17,1
1590108618,2020-05-22 02:50,35.19,1001.18,1027.09,215,22.32,6.22,-18,1
1590108919,2020-05-22 02:55,35.42,1001.24,1027.14,215,22.32,6.31,-18,1
1590109222,2020-05-22 03:00,35.46,1001.17,1027.07,215,22.30,6.31,-18,1
1590109523,2020-05-22 03:05,35.72,1001.16,1027.07,215,22.28,6.40,-16,1
1590109823,2020-05-22 03:10,35.44,1001.21,1027.11,215,22.25,6.26,-16,1
1590110124,2020-05-22 03:15,34.82,1001.16,1027.06,215,22.26,6.01,-16,1
1590110425,2020-05-22 03:20,35.03,1001.14,1027.05,215,22.24,6.08,-16,1
1590110726,2020-05-22 03:25,35.46,1001.09,1026.99,215,22.22,6.24,-16,1
1590111027,2020-05-22 03:30,35.38,1001.10,1027.00,215,22.20,6.19,-16,1
1590111327,2020-05-22 03:35,35.44,1001.14,1027.05,215,22.18,6.19,-16,1
1590111628,2020-05-22 03:40,35.42,1001.09,1027.00,215,22.17,6.18,-16,1
1590111929,2020-05-22 03:45,35.27,1001.09,1026.99,215,22.17,6.12,-16,1
1590112230,2020-05-22 03:50,35.42,1001.11,1027.02,215,22.16,6.17,-16,1
1590112530,2020-05-22 03:55,35.52,1001.10,1027.00,215,22.14,6.19,-16,1
1590112831,2020-05-22 04:00,35.70,1001.10,1027.00,215,22.12,6.25,-16,1
1590113132,2020-05-22 04:05,35.41,1001.07,1026.97,215,22.11,6.12,-15,1
1590113433,2020-05-22 04:10,34.33,1001.07,1026.97,215,22.09,5.66,-16,1
1590113736,2020-05-22 04:15,35.03,1001.06,1026.97,215,22.09,5.95,-16,1
1590114036,2020-05-22 04:20,35.53,1001.14,1027.04,215,22.08,6.14,-16,1
1590114336,2020-05-22 04:25,35.48,1001.11,1027.01,215,22.06,6.11,-16,1
1590114637,2020-05-22 04:30,35.31,1001.11,1027.01,215,22.06,6.04,-16,1
1590114938,2020-05-22 04:35,35.34,1001.19,1027.10,215,22.05,6.04,-16,1
1590115239,2020-05-22 04:40,35.42,1001.24,1027.14,215,22.03,6.06,-16,1
1590115539,2020-05-22 04:45,35.24,1001.17,1027.07,215,22.01,5.96,-16,1
1590115840,2020-05-22 04:50,35.16,1001.20,1027.10,215,22.00,5.92,-16,1
1590116141,2020-05-22 04:55,35.20,1001.29,1027.19,215,21.98,5.92,-16,1
1590116441,2020-05-22 05:00,34.88,1001.26,1027.16,215,21.96,5.77,-16,1
1590116741,2020-05-22 05:05,34.68,1001.24,1027.14,215,21.94,5.67,-16,1
1590117042,2020-05-22 05:10,34.20,1001.30,1027.20,215,21.96,5.49,-15,1
1590117343,2020-05-22 05:15,34.77,1001.35,1027.26,215,21.95,5.72,-16,1
1590117643,2020-05-22 05:20,35.05,1001.44,1027.35,215,21.92,5.80,-16,1
1590117944,2020-05-22 05:25,35.01,1001.56,1027.46,215,21.92,5.79,-16,1
1590118245,2020-05-22 05:30,34.76,1001.54,1027.44,215,21.89,5.66,-16,1
1590118545,2020-05-22 05:35,34.40,1001.56,1027.46,215,21.88,5.50,-16,1
1590118845,2020-05-22 05:40,34.59,1001.63,1027.53,215,21.87,5.57,-15,1
1590119145,2020-05-22 05:45,34.42,1001.58,1027.49,215,21.86,5.49,-16,1
1590119445,2020-05-22 05:50,34.60,1001.64,1027.54,215,21.86,5.57,-16,1
1590119745,2020-05-22 05:55,34.34,1001.66,1027.56,215,21.86,5.46,-16,1
1590120045,2020-05-22 06:00,34.33,1001.71,1027.62,215,21.86,5.45,-15,1
1590120346,2020-05-22 06:05,34.05,1001.75,1027.65,215,21.83,5.31,-15,1
1590120646,2020-05-22 06:10,33.94,1001.80,1027.70,215,21.85,5.28,-16,1
1590120946,2020-05-22 06:15,33.82,1001.75,1027.65,215,21.88,5.26,-16,1
1590121247,2020-05-22 06:20,33.47,1001.78,1027.69,215,21.89,5.11,-16,1
1590121547,2020-05-22 06:25,33.83,1001.67,1027.58,215,21.90,5.28,-15,1
1590121847,2020-05-22 06:30,34.34,1001.81,1027.71,215,21.91,5.50,-16,1
1590122147,2020-05-22 06:35,36.03,1001.81,1027.71,215,22.01,6.28,-16,1
1590122448,2020-05-22 06:40,37.06,1001.86,1027.76,215,22.15,6.82,-16,1
1590122748,2020-05-22 06:45,37.80,1001.84,1027.74,215,22.22,7.17,-16,1
1590123049,2020-05-22 06:50,36.82,1001.92,1027.82,215,22.21,6.78,-15,1
1590123349,2020-05-22 06:55,36.50,1001.93,1027.83,215,22.19,6.63,-15,1
1590123650,2020-05-22 07:00,36.17,1002.01,1027.92,215,22.16,6.47,-16,1
1590123950,2020-05-22 07:05,35.41,1001.94,1027.85,215,22.16,6.17,-16,1
1590124250,2020-05-22 07:10,39.74,1001.97,1027.87,215,22.28,7.95,-16,1
1590124550,2020-05-22 07:15,40.33,1001.96,1027.87,215,22.39,8.27,-16,1
1590124850,2020-05-22 07:20,40.81,1002.01,1027.91,215,22.47,8.52,-16,1
1590125151,2020-05-22 07:25,43.59,1001.96,1027.86,215,22.58,9.59,-16,1
1590125451,2020-05-22 07:30,47.40,1001.97,1027.88,215,22.69,10.95,-15,1
1590125751,2020-05-22 07:35,51.53,1002.02,1027.93,215,22.78,12.29,-16,1
1590126052,2020-05-22 07:40,46.44,1002.03,1027.93,215,22.74,10.68,-15,1
1590126352,2020-05-22 07:45,43.78,1002.04,1027.94,215,22.68,9.75,-16,1
1590126652,2020-05-22 07:50,40.13,1002.05,1027.96,215,22.59,8.38,-15,1
1590126952,2020-05-22 07:55,37.38,1002.11,1028.01,215,22.46,7.22,-16,1
1590127252,2020-05-22 08:00,33.46,1002.14,1028.05,215,22.31,5.48,-16,1
1590127553,2020-05-22 08:05,33.09,1002.16,1028.07,215,22.22,5.24,-15,1
1590127853,2020-05-22 08:10,32.03,1002.12,1028.02,215,22.13,4.70,-15,1
1590128154,2020-05-22 08:15,33.16,1002.14,1028.04,215,22.06,5.13,-16,1
1590128455,2020-05-22 08:20,32.62,1002.13,1028.04,215,22.00,4.84,-15,1
1590128755,2020-05-22 08:25,31.57,1002.08,1027.99,215,21.95,4.33,-15,1
1590129056,2020-05-22 08:30,31.33,1002.11,1028.01,215,21.90,4.18,-15,1
1590129356,2020-05-22 08:35,30.24,1002.04,1027.94,215,21.87,3.65,-15,1
1590129656,2020-05-22 08:40,30.45,1001.99,1027.89,215,21.82,3.70,-15,1
1590129957,2020-05-22 08:45,29.72,1002.01,1027.91,215,21.82,3.36,-15,1
1590130260,2020-05-22 08:51,29.91,1001.89,1027.79,215,21.82,3.45,-16,1
1590130560,2020-05-22 08:56,29.87,1002.09,1028.00,215,21.80,3.41,-15,1
1590130860,2020-05-22 09:01,29.20,1002.02,1027.93,215,21.80,3.09,-15,1
1590131161,2020-05-22 09:06,28.73,1001.95,1027.85,215,21.78,2.84,-16,1
1590131461,2020-05-22 09:11,28.37,1001.90,1027.81,215,21.78,2.67,-16,1
1590131761,2020-05-22 09:16,28.14,1001.86,1027.76,215,21.78,2.55,-16,1
1590132061,2020-05-22 09:21,27.91,1001.95,1027.86,215,21.79,2.45,-16,1
1590132362,2020-05-22 09:26,27.48,1001.91,1027.82,215,21.78,2.22,-16,1
1590132662,2020-05-22 09:31,27.37,1001.95,1027.85,215,21.79,2.17,-15,1
1590132962,2020-05-22 09:36,27.38,1001.95,1027.86,215,21.79,2.18,-15,1
1590133263,2020-05-22 09:41,27.23,1001.96,1027.86,215,21.79,2.10,-15,1
1590133563,2020-05-22 09:46,26.81,1001.97,1027.87,215,21.80,1.89,-16,1
1590133863,2020-05-22 09:51,26.78,1001.91,1027.81,215,21.81,1.88,-16,1
1590134163,2020-05-22 09:56,26.26,1001.95,1027.86,215,21.81,1.61,-16,1
1590134463,2020-05-22 10:01,26.28,1001.99,1027.89,215,21.81,1.62,-15,1
1590134764,2020-05-22 10:06,26.14,1001.92,1027.83,215,21.81,1.55,-16,1
1590135065,2020-05-22 10:11,25.96,1001.98,1027.89,215,21.80,1.44,-16,1
1590135365,2020-05-22 10:16,25.76,1002.01,1027.92,215,21.82,1.35,-15,1
1590135666,2020-05-22 10:21,26.40,1001.97,1027.87,215,21.83,1.70,-15,1
1590135967,2020-05-22 10:26,26.19,1001.96,1027.87,215,21.80,1.57,-15,1
1590136267,2020-05-22 10:31,25.85,1001.93,1027.83,215,21.85,1.42,-16,1
1590136568,2020-05-22 10:36,25.48,1001.86,1027.77,215,21.84,1.21,-15,1
1590136868,2020-05-22 10:41,25.54,1001.89,1027.80,215,21.85,1.25,-15,1
1590137168,2020-05-22 10:46,25.54,1001.88,1027.79,215,21.86,1.26,-15,1
1590137469,2020-05-22 10:51,25.26,1001.86,1027.76,215,21.87,1.12,-15,1
1590137770,2020-05-22 10:56,25.25,1001.87,1027.77,215,21.88,1.12,-16,1
1590138071,2020-05-22 11:01,25.07,1001.95,1027.86,215,21.91,1.05,-15,1
1590138371,2020-05-22 11:06,25.05,1001.96,1027.86,215,21.92,1.05,-15,1
1590138671,2020-05-22 11:11,25.24,1001.93,1027.83,215,21.95,1.18,-16,1
1590138972,2020-05-22 11:16,25.54,1001.84,1027.75,215,21.98,1.37,-15,1
1590139273,2020-05-22 11:21,25.98,1001.76,1027.66,215,22.01,1.63,-15,1
1590139573,2020-05-22 11:26,26.19,1001.80,1027.70,215,22.03,1.76,-15,1
1590139873,2020-05-22 11:31,26.29,1001.81,1027.71,215,22.05,1.83,-15,1
1590140175,2020-05-22 11:36,26.16,1001.77,1027.67,215,22.07,1.78,-16,1
1590140477,2020-05-22 11:41,26.13,1001.74,1027.65,215,22.09,1.78,-15,1
1590140777,2020-05-22 11:46,26.17,1001.62,1027.52,215,22.10,1.81,-16,1
1590141078,2020-05-22 11:51,26.10,1001.67,1027.57,215,22.12,1.79,-15,1
1590141379,2020-05-22 11:56,26.30,1001.64,1027.54,215,22.12,1.90,-16,1
1590141680,2020-05-22 12:01,26.35,1001.54,1027.44,215,22.11,1.91,-16,1
1590141983,2020-05-22 12:06,26.28,1001.56,1027.46,215,22.10,1.87,-15,1
1590142284,2020-05-22 12:11,26.25,1001.52,1027.43,215,22.09,1.84,-16,1
1590142585,2020-05-22 12:16,26.48,1001.51,1027.42,215,22.06,1.94,-15,1
1590142886,2020-05-22 12:21,26.14,1001.57,1027.47,215,22.05,1.75,-15,1
1590143186,2020-05-22 12:26,25.64,1001.58,1027.48,215,22.03,1.46,-15,1
1590143487,2020-05-22 12:31,25.95,1001.59,1027.49,215,22.02,1.62,-15,1
1590143790,2020-05-22 12:36,26.18,1001.47,1027.37,215,22.02,1.75,-15,1
1590144091,2020-05-22 12:41,26.13,1001.39,1027.30,215,22.02,1.72,-15,1
1590144392,2020-05-22 12:46,25.50,1001.37,1027.28,215,22.02,1.38,-15,1
1590144693,2020-05-22 12:51,25.57,1001.44,1027.35,215,22.03,1.43,-15,1
1590144994,2020-05-22 12:56,25.57,1001.41,1027.31,215,22.03,1.42,-19,1
1590145295,2020-05-22 13:01,25.92,1001.38,1027.28,215,22.04,1.62,-15,1
1590145595,2020-05-22 13:06,25.81,1001.24,1027.15,215,22.05,1.57,-15,1
1590145896,2020-05-22 13:11,26.19,1001.25,1027.15,215,22.06,1.79,-15,1
1590146197,2020-05-22 13:16,25.29,1001.21,1027.11,215,22.09,1.33,-15,1
1590146498,2020-05-22 13:21,25.32,1001.15,1027.05,215,22.12,1.37,-15,1
1590146799,2020-05-22 13:26,25.52,1001.13,1027.03,215,22.14,1.49,-15,1
1590147100,2020-05-22 13:31,25.35,1001.01,1026.91,215,22.16,1.41,-15,1
1590147401,2020-05-22 13:36,25.24,1001.04,1026.94,215,22.20,1.39,-15,1
1590147701,2020-05-22 13:41,24.79,1001.02,1026.92,215,22.22,1.16,-15,1
1590148002,2020-05-22 13:46,26.71,1000.97,1026.87,215,22.25,2.22,-15,1
1590148305,2020-05-22 13:51,27.23,1000.93,1026.84,215,22.36,2.59,-15,1
1590148606,2020-05-22 13:56,26.88,1001.03,1026.93,215,22.38,2.42,-15,1
1590148907,2020-05-22 14:01,26.20,1001.00,1026.90,215,22.42,2.10,-15,1
1590149208,2020-05-22 14:06,26.41,1000.85,1026.75,215,22.46,2.25,-15,1
1590149511,2020-05-22 14:11,34.19,1000.88,1026.79,215,22.63,6.07,-14,1
1590149812,2020-05-22 14:16,33.53,1000.89,1026.79,215,22.72,5.87,-14,1
1590150113,2020-05-22 14:21,32.81,1000.80,1026.71,215,22.79,5.61,-14,1
1590150418,2020-05-22 14:26,32.75,1000.74,1026.65,215,22.80,5.60,-15,1
1590150717,2020-05-22 14:31,32.28,1000.73,1026.63,215,22.77,5.36,-15,1
1590151018,2020-05-22 14:36,32.44,1000.75,1026.65,215,22.79,5.45,-15,1
1590151319,2020-05-22 14:41,32.06,1000.72,1026.62,215,22.78,5.27,-15,1
1590151620,2020-05-22 14:47,31.65,1000.77,1026.67,215,22.77,5.08,-14,1
1590151921,2020-05-22 14:52,31.19,1000.71,1026.62,215,22.77,4.87,-15,1
1590152222,2020-05-22 14:57,30.68,1000.69,1026.59,215,22.76,4.63,-17,1
1590152525,2020-05-22 15:02,30.99,1000.63,1026.53,215,22.76,4.77,-15,1
1590152826,2020-05-22 15:07,30.52,1000.63,1026.53,215,22.76,4.55,-15,1
1590153127,2020-05-22 15:12,29.50,1000.60,1026.50,215,22.73,4.04,-15,1
1590153428,2020-05-22 15:17,30.02,1000.48,1026.38,215,22.75,4.31,-15,1
1590153729,2020-05-22 15:22,29.41,1000.53,1026.44,215,22.76,4.02,-15,1
1590154030,2020-05-22 15:27,29.68,1000.44,1026.34,215,22.76,4.15,-15,1
1590154331,2020-05-22 15:32,29.60,1000.32,1026.22,215,22.71,4.07,-15,1
1590154634,2020-05-22 15:37,29.42,1000.48,1026.38,215,22.73,4.00,-15,1
1590154935,2020-05-22 15:42,29.21,1000.36,1026.26,215,22.68,3.86,-15,1
1590155235,2020-05-22 15:47,28.98,1000.34,1026.24,215,22.68,3.74,-16,1
1590155536,2020-05-22 15:52,29.25,1000.37,1026.28,215,22.64,3.84,-16,1
1590155840,2020-05-22 15:57,28.95,1000.28,1026.19,215,22.62,3.68,-16,1
1590156442,2020-05-22 16:07,28.85,1000.31,1026.22,215,22.57,3.58,-14,1
1590156742,2020-05-22 16:12,28.16,1000.33,1026.23,215,22.54,3.22,-15,1
1590157043,2020-05-22 16:17,27.86,1000.33,1026.23,215,22.51,3.04,-15,1
1590157344,2020-05-22 16:22,28.12,1000.36,1026.26,215,22.47,3.14,-15,1
1590157645,2020-05-22 16:27,27.56,1000.44,1026.35,215,22.45,2.83,-15,1
1590157947,2020-05-22 16:32,27.46,1000.52,1026.42,215,22.40,2.74,-15,1
1590158251,2020-05-22 16:37,27.33,1000.54,1026.44,215,22.38,2.66,-15,1
1590158552,2020-05-22 16:42,27.47,1000.60,1026.50,215,22.36,2.71,-15,1
1590158853,2020-05-22 16:47,27.57,1000.56,1026.46,215,22.35,2.76,-15,1
1590159154,2020-05-22 16:52,27.27,1000.47,1026.37,215,22.32,2.58,-15,1
1590159457,2020-05-22 16:57,27.44,1000.47,1026.38,215,22.30,2.65,-15,1
1590160058,2020-05-22 17:07,27.53,1000.35,1026.25,215,22.23,2.63,-17,1
1590160359,2020-05-22 17:12,27.78,1000.32,1026.22,215,22.20,2.73,-16,1
1590160660,2020-05-22 17:17,27.78,1000.27,1026.18,215,22.17,2.71,-16,1
1590160961,2020-05-22 17:22,28.15,1000.22,1026.12,215,22.14,2.87,-16,1
1590161262,2020-05-22 17:27,28.52,1000.24,1026.14,215,22.11,3.02,-16,1
1590161562,2020-05-22 17:32,28.40,1000.19,1026.09,215,22.09,2.95,-17,1
1590161863,2020-05-22 17:37,28.48,1000.19,1026.10,215,22.06,2.96,-16,1
1590162164,2020-05-22 17:42,28.58,1000.24,1026.14,215,22.05,3.00,-15,1
1590162468,2020-05-22 17:47,28.61,1000.13,1026.04,215,22.03,3.00,-16,1
1590162768,2020-05-22 17:52,28.11,1000.15,1026.05,215,22.01,2.73,-15,1
1590163069,2020-05-22 17:57,28.28,1000.14,1026.04,215,21.99,2.80,-16,1
1590163669,2020-05-22 18:07,27.77,1000.05,1025.95,215,21.96,2.52,-16,1
1590163970,2020-05-22 18:12,27.77,1000.09,1026.00,215,21.94,2.50,-15,1
1590164272,2020-05-22 18:17,27.48,1000.12,1026.03,215,21.93,2.35,-16,1
1590164573,2020-05-22 18:22,27.62,1000.11,1026.01,215,21.92,2.41,-15,1
1590164876,2020-05-22 18:27,27.48,1000.15,1026.06,215,21.91,2.33,-16,1
1590165182,2020-05-22 18:33,27.68,1000.17,1026.08,215,21.90,2.43,-15,1
1590165480,2020-05-22 18:38,28.46,1000.15,1026.05,215,21.88,2.80,-15,1
1590165781,2020-05-22 18:43,28.03,1000.23,1026.14,215,21.86,2.57,-16,1
1590166082,2020-05-22 18:48,28.90,1000.24,1026.14,215,21.84,2.98,-15,1
1590166383,2020-05-22 18:53,29.13,1000.22,1026.12,215,21.83,3.08,-16,1
1590166684,2020-05-22 18:58,29.09,1000.15,1026.05,215,21.80,3.04,-15,1
1590167286,2020-05-22 19:08,29.12,1000.21,1026.11,215,21.78,3.03,-15,1
1590167587,2020-05-22 19:13,28.84,1000.22,1026.12,215,21.75,2.87,-14,1
1590167887,2020-05-22 19:18,28.72,1000.16,1026.06,215,21.75,2.82,-15,1
1590168191,2020-05-22 19:23,28.76,1000.18,1026.09,215,21.73,2.82,-15,1
1590168492,2020-05-22 19:28,28.72,1000.16,1026.07,215,21.71,2.78,-15,1
1590168792,2020-05-22 19:33,28.58,1000.22,1026.12,215,21.70,2.70,-15,1
1590169092,2020-05-22 19:38,28.43,1000.30,1026.20,215,21.69,2.62,-15,1
1590169393,2020-05-22 19:43,28.23,1000.23,1026.13,215,21.68,2.51,-15,1
1590169694,2020-05-22 19:48,28.82,1000.28,1026.18,215,21.68,2.80,-15,1
1590169995,2020-05-22 19:53,28.84,1000.30,1026.21,215,21.67,2.81,-15,1
1590170295,2020-05-22 19:58,28.53,1000.27,1026.17,215,21.65,2.64,-15,1
1590170596,2020-05-22 20:03,28.67,1000.30,1026.20,215,21.64,2.70,-14,1
1590170897,2020-05-22 20:08,30.08,1000.31,1026.21,215,21.64,3.37,-15,1
1590171198,2020-05-22 20:13,30.97,1000.29,1026.20,215,21.71,3.85,-15,1
1590171499,2020-05-22 20:18,30.97,1000.30,1026.21,215,21.74,3.87,-15,1
1590171800,2020-05-22 20:23,31.58,1000.39,1026.29,215,21.78,4.19,-15,1
1590172104,2020-05-22 20:28,32.01,1000.40,1026.31,215,21.84,4.43,-15,1
1590172404,2020-05-22 20:33,32.35,1000.47,1026.37,215,21.90,4.64,-15,1
1590172705,2020-05-22 20:38,35.09,1000.48,1026.38,215,21.91,5.81,-15,1
1590173006,2020-05-22 20:43,34.46,1000.48,1026.38,215,21.91,5.55,-15,1
1590173307,2020-05-22 20:48,35.13,1000.53,1026.44,215,21.89,5.81,-15,1
1590173607,2020-05-22 20:53,35.99,1000.57,1026.48,215,21.85,6.12,-15,1
1590173908,2020-05-22 20:58,36.38,1000.60,1026.50,215,21.82,6.26,-15,1
1590174209,2020-05-22 21:03,41.40,1000.62,1026.52,215,21.83,8.15,-16,1
1590174510,2020-05-22 21:08,40.48,1000.65,1026.56,215,21.94,7.92,-15,1
1590174814,2020-05-22 21:13,42.92,1000.67,1026.57,215,22.01,8.85,-15,1
1590175114,2020-05-22 21:18,44.59,1000.68,1026.59,215,22.05,9.45,-15,1
1590175415,2020-05-22 21:23,44.33,1000.64,1026.55,215,22.07,9.38,-15,1
1590175716,2020-05-22 21:28,48.27,1000.78,1026.68,215,22.14,10.72,-16,1
1590176462,2020-05-22 21:41,45.95,1000.87,1026.78,215,22.14,9.98,-16,1
1590176763,2020-05-22 21:46,42.95,1000.88,1026.78,215,22.15,8.99,-16,1
1590177064,2020-05-22 21:51,43.45,1000.94,1026.84,215,22.18,9.18,-17,1
1590177368,2020-05-22 21:56,43.49,1000.95,1026.86,215,22.22,9.23,-17,1
1590177668,2020-05-22 22:01,43.34,1000.95,1026.86,215,22.30,9.25,-16,1
1590177969,2020-05-22 22:06,43.13,1000.96,1026.86,215,22.41,9.28,-16,1
1590178270,2020-05-22 22:11,43.32,1000.98,1026.88,215,22.52,9.45,-18,1
1590178570,2020-05-22 22:16,43.02,1001.04,1026.94,215,22.64,9.45,-18,1
1590178871,2020-05-22 22:21,43.40,1001.05,1026.95,215,22.75,9.68,-18,1
1590179175,2020-05-22 22:26,42.82,1001.15,1027.05,215,22.86,9.58,-16,1
1590179475,2020-05-22 22:31,44.06,1001.20,1027.10,215,23.03,10.16,-16,1
1590179777,2020-05-22 22:36,45.42,1001.22,1027.12,215,23.26,10.82,-15,1
1590180078,2020-05-22 22:41,44.64,1001.27,1027.17,215,23.47,10.75,-16,1
1590180378,2020-05-22 22:46,43.65,1001.23,1027.14,215,23.56,10.50,-17,1
1590180678,2020-05-22 22:51,43.43,1001.19,1027.09,215,23.61,10.47,-17,1
1590180978,2020-05-22 22:56,43.26,1001.28,1027.18,215,23.66,10.46,-17,1
1590181279,2020-05-22 23:01,42.84,1001.29,1027.20,215,23.71,10.35,-17,1
1590181580,2020-05-22 23:06,43.62,1001.31,1027.22,215,23.78,10.69,-16,1
1590181881,2020-05-22 23:11,44.13,1001.30,1027.21,215,23.85,10.93,-17,1
1590182181,2020-05-22 23:16,45.31,1001.32,1027.22,215,23.87,11.34,-16,1
1590182482,2020-05-22 23:21,46.45,1001.34,1027.25,215,23.86,11.71,-16,1
1590182783,2020-05-22 23:26,46.98,1001.34,1027.25,215,23.85,11.87,-16,1
1590183084,2020-05-22 23:31,47.36,1001.38,1027.28,215,23.82,11.96,-16,1
1590183385,2020-05-22 23:36,48.14,1001.46,1027.36,215,23.80,12.19,-16,1
1590183689,2020-05-22 23:41,47.58,1001.45,1027.35,215,23.78,12.00,-16,1
1590183989,2020-05-22 23:46,47.90,1001.43,1027.33,215,23.76,12.08,-16,1
1590184290,2020-05-22 23:51,48.01,1001.51,1027.42,215,23.75,12.11,-16,1
1590184590,2020-05-22 23:56,48.55,1001.52,1027.42,215,23.74,12.27,-16,1
